Location: Pallagorio
(39.3000°N, 16.9000°E)
Time: 02:06:58
(UTC+00:00)

NOSS 2-1 (C) - Pass Details

Date: 24 January 2021
Orbit: 432 x 1770 km, 63.3° (Epoch: 27 February)

Event Time Altitude Azimuth Distance (km) Brightness Sun altitude
Rises 16:41:31 0° 203° (SSW) 2,578 7.4 -7.6°
Reaches altitude 10° 16:43:46 10° 198° (SSW) 1,609 6.2 -8.1°
Maximum altitude 16:47:07 53° 120° (ESE) 541 3.0 -8.7°
Drops below altitude 10° 16:50:20 10° 43° (NE) 1,546 5.1 -9.3°
Enters shadow 16:50:23 10° 43° (NE) 1,568 5.1 -9.3°
